Terminal Aerodrome Forecast
Issued by NWS Wilmington, NC

Home | Current Version | Previous Version | Text Only | Print | Product List | Glossary On
Versions: 1 2 3 4 5 6 7 8 9 10 11 12 13 14 15 16 17 18
000
FTUS42 KILM 050526
TAFLBT
TAF
KLBT 050526Z 0506/0606 02002KT 5SM BR SCT030
     FM050900 02005KT 6SM BR SCT005 BKN025
      TEMPO 0510/0514 3SM BR BKN005
     FM051400 04009KT P6SM BKN060
     FM051900 05010KT P6SM VCTS SCT045CB BKN060
     FM060000 05005KT P6SM BKN250=

USA.gov is the U.S. government's official web portal to all federal, state and local government web resources and services.